Tracking 28920 objects as of 25-May-2024
HD Live streaming from Space Station
objects crossing your sky now

OBJECT Z

Track OBJECT Z now!
10-day predictions
OBJECT Z is classified as:


NORAD ID: 57189
Int'l Code: 2023-091Z
Perigee: 533.9 km
Apogee: 551.9 km
Inclination: 97.6 °
Period: 95.4 minutes
Semi major axis: 6913 km
RCS: Unknown
Launch date: June 27, 2023
Source: (TBD)
Launch site: VOSTOCHNY COSMODROME (VOSTO)

Uplink (MHz):
Downlink (MHz): 437.825
Beacon (MHz):
Mode: 2k4/4k8*/9k6 GMSK_USP
Call sign: RS38S
Status: Active

Your satellite tracking list
Your tracking list is empty




NASA's NSSDC Master Catalog

Two Line Element Set (TLE):
1 57189U 23091Z   24146.15220478  .00010859  00000-0  66762-3 0  9994
2 57189  97.6154 199.4885 0013026 177.7858 182.3431 15.10155569 50086
Source of the keplerian elements: AFSPC